Rock Hill, SC

2:29 AM EDT on May 26, 2017 (GMT -0400)
Rock Hill-York County-Bryant

Weather History for KUZA - May, 2013

Change the Weather History Date:

Wednesday, May 22, 2013

  Actual Average Record
Temperature  
Mean Temperature 73 °F -  
Max Temperature 84 °F 81 °F 93 °F (1951)
Min Temperature 64 °F 60 °F 43 °F (2002)
Cooling Degree Days 8    
Growing Degree Days 23 (Base 50)    
Moisture  
Dew Point 65 °F    
Average Humidity 84    
Maximum Humidity 100    
Minimum Humidity 53    
Precipitation  
Precipitation 0.00 in - - ()
Sea Level Pressure  
Sea Level Pressure 29.97 in    
Wind  
Wind Speed 5 mph (SSW)    
Max Wind Speed 10 mph    
Max Gust Speed -    
Visibility 6 miles    
Events Fog , Thunderstorm    
Averages and records for this station are not official NWS values.
T = Trace of Precipitation, MM = Missing Value Source: NWS Daily Summary

Daily Weather History Graph

Daily Weather History Graph

Search for Another Location

Airport or City:

Trip Planner

Search our weather history database for the weather conditions in past years. The results will help you decide how hot, cold, wet, or windy it might be!

Date:

Astronomy

May. 22, 2013 Rise Set
Actual Time 6:15 AM EDT 8:26 PM EDT
Civil Twilight 5:47 AM EDT 8:55 PM EDT
Nautical Twilight 5:12 AM EDT 9:30 PM EDT
Astronomical Twilight 4:34 AM EDT 10:07 PM EDT
Moon 5:52 PM EDT (5/22) 4:12 AM EDT (5/22)
Length of Visible Light 15h 07m
Length of Day
14h 10m
Waxing Gibbous, 91% of the Moon is Illuminated
May 22
Waxing Gibbous
May 25
Full
May 31
Last Quarter
Jun 8
New
Jun 16
First Quarter

Hourly Weather History & Observations

Time (EDT) Temp. Heat Index Dew Point Humidity Pressure Visibility Wind Dir Wind Speed Gust Speed Precip Events Conditions
12:54 AM 68.0 °F - 66.9 °F 96% 29.99 in 6.0 mi SSW 4.6 mph - N/A   Mostly Cloudy
1:50 AM 68.0 °F - 66.2 °F 94% 30.02 in 5.0 mi SSW 5.8 mph - N/A   Overcast
1:54 AM 68.0 °F - 66.9 °F 96% 29.99 in 5.0 mi SSW 4.6 mph - N/A   Overcast
2:35 AM 66.9 °F - 66.9 °F 100% 30.02 in 2.5 mi South 4.6 mph - N/A   Overcast
2:51 AM 66.2 °F - 66.2 °F 100% 30.02 in 3.0 mi SSW 4.6 mph - N/A   Overcast
2:54 AM 66.9 °F - 66.9 °F 100% 29.99 in 3.0 mi SSW 4.6 mph - N/A   Overcast
3:14 AM 66.9 °F - 66.9 °F 100% 30.01 in 4.0 mi SSW 4.6 mph - N/A   Overcast
3:51 AM 66.2 °F - 66.2 °F 100% 29.99 in 3.0 mi South 3.5 mph - N/A   Overcast
3:54 AM 66.9 °F - 66.9 °F 100% 29.96 in 3.0 mi SSW 5.8 mph - N/A   Overcast
4:54 AM 66.9 °F - 66.0 °F 97% 29.96 in 3.0 mi South 5.8 mph - N/A   Overcast
5:36 AM 66.0 °F - 66.0 °F 100% 29.99 in 2.0 mi SSW 5.8 mph - N/A   Overcast
5:45 AM 66.0 °F - 66.0 °F 100% 30.00 in 1.5 mi South 3.5 mph - N/A   Overcast
5:54 AM 66.0 °F - 66.0 °F 100% 29.97 in 0.8 mi South 5.8 mph - N/A   Overcast
6:16 AM 64.9 °F - 64.9 °F 100% 30.00 in 0.5 mi SSW 5.8 mph - N/A Fog Fog
6:22 AM 64.9 °F - 64.9 °F 100% 30.01 in 1.0 mi South 5.8 mph - N/A   Overcast
6:39 AM 64.9 °F - 64.9 °F 100% 30.01 in 2.5 mi SSW 6.9 mph - N/A   Overcast
6:54 AM 64.9 °F - 64.9 °F 100% 29.99 in 3.0 mi SSW 8.1 mph - N/A   Overcast
7:54 AM 66.9 °F - 66.0 °F 97% 29.99 in 4.0 mi SSW 6.9 mph - N/A   Overcast
8:46 AM 69.1 °F - 66.9 °F 93% 30.04 in 7.0 mi SSW 10.4 mph - N/A   Overcast
8:54 AM 70.0 °F - 66.9 °F 90% 30.01 in 7.0 mi SW 8.1 mph - N/A   Overcast
9:54 AM 73.0 °F - 66.9 °F 81% 30.00 in 10.0 mi SSW 9.2 mph - N/A   Scattered Clouds
10:54 AM 75.9 °F - 66.9 °F 74% 29.99 in 10.0 mi SSW 4.6 mph - N/A   Partly Cloudy
11:54 AM 79.0 °F - 68.0 °F 69% 29.99 in 10.0 mi Variable 5.8 mph - N/A   Scattered Clouds
12:54 PM 82.0 °F 83.8 °F 64.9 °F 56% 29.98 in 10.0 mi WSW 6.9 mph - N/A   Partly Cloudy
1:54 PM 82.9 °F 85.0 °F 66.0 °F 56% 29.96 in 10.0 mi SSW 8.1 mph - N/A   Scattered Clouds
2:54 PM 82.0 °F 84.1 °F 66.0 °F 58% 29.94 in 9.0 mi South 6.9 mph - N/A   Unknown
3:54 PM 82.9 °F 85.0 °F 66.0 °F 56% 29.91 in 10.0 mi South 6.9 mph - N/A   Scattered Clouds
4:54 PM 82.9 °F 84.6 °F 64.9 °F 54% 29.89 in 10.0 mi South 9.2 mph - N/A   Partly Cloudy
5:54 PM 82.9 °F 84.4 °F 64.0 °F 53% 29.88 in 10.0 mi SSE 8.1 mph - N/A   Clear
6:54 PM 82.0 °F 83.4 °F 64.0 °F 54% 29.88 in 10.0 mi Variable 5.8 mph - N/A   Clear
7:54 PM 78.1 °F - 64.0 °F 62% 29.90 in 10.0 mi SSW 4.6 mph - N/A   Clear
8:54 PM 72.0 °F - 66.0 °F 81% 29.92 in 10.0 mi Calm Calm - N/A   Clear
9:54 PM 71.1 °F - 61.0 °F 70% 29.95 in 10.0 mi NNW 9.2 mph - N/A   Overcast
10:37 PM 69.1 °F - 62.1 °F 78% 29.98 in 10.0 mi NNE 3.5 mph - 0.00 in Thunderstorm Mostly Cloudy
10:54 PM 69.1 °F - 63.0 °F 81% 29.95 in 10.0 mi Calm Calm - 0.00 in Thunderstorm Mostly Cloudy
11:23 PM 69.1 °F - 62.1 °F 78% 29.99 in 10.0 mi South 4.6 mph - N/A Thunderstorm Thunderstorm
11:54 PM 68.0 °F - 63.0 °F 84% 29.94 in 10.0 mi ESE 3.5 mph - N/A Thunderstorm Scattered Clouds